Flag for U.S.A. Weather past 2 weeks in Vancouver, Washington, U.S.A.

Now
47 °F

Overcast.


Feels Like: 47 °F
Forecast: 44 / 65 °F
Wind: No wind

Location: Vancouver - Pearson Airpark

Current Time: Mar 29, 2015 at 6:54:30 AM

Latest Report: Mar 29, 2015 at 5:53 AM


Visibility: 10 mi

Pressure: 30.29 "Hg

Humidity: 86%

Dew point: 43 °F

Location of VancouverLocation

Historic Weather in Vancouver — Graph

°F

Vancouver temperature yesterday

Maximum temperature yesterday: 60 °F (at 3:53 PM)
Minimum temperature yesterday: 49 °F (at 6:53 AM)
Average temperature yesterday: 54 °F

Past Weeks' High & Low Weather Summary

 TemperatureHumidityPressure
High71 °F (Mar 26, 4:53 PM)100% (Mar 26, 10:53 AM)30.39 "Hg (Mar 26, 10:53 AM)
Low36 °F (Mar 16, 4:53 AM)33% (Mar 20, 3:53 PM)29.67 "Hg (Mar 15, 11:53 AM)
Average52 °F77%30.11 "Hg
* Reported Mar 14 4:53 AM — Mar 29 4:53 AM, Vancouver, Weather by CustomWeather, © 2015

Note: Actual official high and low records may vary slightly from our data, if they occured in-between our weather recording intervals... More about our weather records

Advertising

Vancouver weather history for previous 24 hours

 ConditionsComfort  
Time TempWeatherWind HumidityBarometerVisibility
4:53 AM
Sun, Mar 29
49 °FOvercast.No wind80%30.30 "Hg10 mi
3:53 AM49 °FPassing clouds.3 mph80%30.30 "Hg10 mi
2:53 AM49 °FPassing clouds.3 mph80%30.32 "Hg10 mi
1:53 AM51 °FPassing clouds.3 mph74%30.33 "Hg10 mi
12:53 AM52 °FOvercast.No wind72%30.34 "Hg10 mi
11:53 PM
Sat, Mar 28
53 °FPassing clouds.3 mph69%30.34 "Hg10 mi
10:53 PM52 °FPassing clouds.3 mph69%30.33 "Hg10 mi
9:53 PM51 °FClear.No wind69%30.32 "Hg10 mi
8:53 PM54 °FClear.No wind62%30.32 "Hg10 mi
7:53 PM58 °FScattered clouds.No wind51%30.34 "Hg10 mi
6:53 PM59 °FSunny.5 mph48%30.34 "Hg10 mi
5:53 PM60 °FOvercast.5 mph46%30.35 "Hg10 mi
4:53 PM60 °FPartly sunny.5 mph46%30.35 "Hg10 mi
3:53 PM60 °FOvercast.6 mph49%30.36 "Hg10 mi
2:53 PM59 °FPartly sunny.3 mph54%30.37 "Hg10 mi
1:53 PM59 °FScattered clouds.6 mph51%30.37 "Hg10 mi
12:53 PM59 °FScattered clouds.8 mph54%30.37 "Hg10 mi
11:53 AM56 °FPartly sunny.5 mph62%30.39 "Hg10 mi
10:53 AM54 °FBroken clouds.6 mph69%30.39 "Hg10 mi
9:53 AM54 °FPassing clouds.6 mph72%30.37 "Hg10 mi
8:53 AM51 °FPartly sunny.5 mph77%30.38 "Hg10 mi
7:53 AM50 °FPassing clouds.No wind80%30.36 "Hg10 mi
6:53 AM49 °FClear.5 mph80%30.32 "Hg10 mi
Weather by CustomWeather, © 2015

See weather overviewHow to use our weather pages